This demonstration page uses our WeatherBlox Daily Observations layout. Learn more.

Left ArrowRight Arrow

Hourly Observations for July 26, 2017

Temp ( °F °C ) Dew Point ( °F °C ) Humidity (%) Winds ( mph kmh ) Pressure ( in mb ) Visibility ( mi km ) Precip ( " mm )
12:53 am 00:53 Clear 82 27.8 65 18.3 56 56 SSE 14 22 29.86 1011 10 16 0.00 0.00
1:53 am 01:53 Mostly Cloudy 81 27.2 67 19.4 62 62 SSE 14 22 29.86 1011 10 16 0.00 0.00
2:53 am 02:53 Cloudy 80 26.7 67 19.4 64 64 S 9 15 29.88 1012 10 16 0.00 0.00
3:00 am 03:00 Cloudy with Nearby Thunderstorms 79 26 68 20 70 70 SW 12 19 29.88 1012 10 16 0.00 0.00
3:09 am 03:09 Cloudy with Thunderstorms 76 24.4 68 20 77 77 WSW 13 20 29.91 1013 10 16 0.01 0.25
3:20 am 03:20 Cloudy with Thunderstorms 74 23.3 70 21.1 88 88 W 13 20 29.91 1013 9 14 0.02 0.51
3:37 am 03:37 Mostly Cloudy 74 23.3 70 21.1 88 88 SW 5 7 29.91 1013 10 16 0.02 0.51
3:53 am 03:53 Mostly Cloudy with Light Rain 74 23.3 70 21.1 88 88 Calm 29.92 1013 5 8 0.05 1.27
4:35 am 04:35 Mostly Cloudy with Nearby Thunderstorms 73 22.8 71 21.7 94 94 N 8 13 29.97 1015 5 8 0.05 1.27
4:43 am 04:43 Cloudy with Nearby Thunderstorms 73 22.8 71 21.7 94 94 NNE 10 17 29.97 1015 4 6 0.07 1.78
4:53 am 04:53 Cloudy with Nearby Thunderstorms 71 21.7 69 20.6 94 94 NNE 12 19 29.95 1014 4 6 0.10 2.54
5:05 am 05:05 Cloudy with Nearby Thunderstorms 72 22 70 21 94 94 ENE 5 7 29.97 1015 5 8 0.00 0.00
5:16 am 05:16 Cloudy with Nearby Thunderstorms 70 21 68 20 94 94 NE 9 15 29.97 1015 3 4 0.00 0.00
5:30 am 05:30 Cloudy with Strong Thunderstorms 70 21 68 20 94 94 E 10 17 29.94 1014 2 3 0.00 0.00
5:44 am 05:44 Mostly Cloudy with Thunderstorms 70 21 68 20 94 94 E 8 13 29.91 1013 9 14 0.00 0.00
5:51 am 05:51 Mostly Cloudy with Light Rain 70 21 68 20 94 94 E 6 9 29.91 1013 10 16 0.36 9.14
5:53 am 05:53 Mostly Cloudy with Light Rain 70 21.1 68 20 93 93 E 7 11 29.90 1013 10 16 0.36 9.14
6:53 am 06:53 Sunny 70 21.1 68 20 93 93 ENE 8 13 29.90 1012 10 16 0.00 0.03
7:05 am 07:05 Mostly Sunny 70 21.1 68 20 93 93 ENE 7 11 29.91 1013 9 14 0.00 0.00
7:53 am 07:53 Sunny 71 21.7 69 20.6 94 94 ENE 8 13 29.90 1013 10 16 0.00 0.00
8:53 am 08:53 Mostly Sunny 72 22.2 70 21.1 94 94 E 8 13 29.91 1013 10 16 0.00 0.00
9:20 am 09:20 Partly Cloudy 73 23 70 21 89 89 E 7 11 29.88 1012 10 16 0.00 0.00
9:35 am 09:35 Mostly Cloudy with Light Rain 73 22.8 71 21.7 94 94 E 7 11 29.88 1012 10 16 0.00 0.03
9:53 am 09:53 Cloudy 74 23.3 72 22.2 94 94 E 7 11 29.91 1013 8 13 0.00 0.03
10:49 am 10:49 Cloudy 77 25 73 23 89 89 E 7 11 29.91 1013 10 16 0.00 0.00
10:53 am 10:53 Mostly Cloudy 78 25.6 73 22.8 85 85 E 8 13 29.93 1013 10 16 0.00 0.00
11:04 am 11:04 Partly Cloudy 79 26 73 23 84 84 ESE 8 13 29.88 1012 10 16 0.00 0.00
11:24 am 11:24 Mostly Cloudy 79 26 72 22 79 79 SE 7 11 29.91 1013 10 16 0.00 0.00
11:53 am 11:53 Mostly Cloudy 80 26.7 72 22.2 76 76 ESE 5 7 29.92 1013 10 16 0.00 0.00
12:53 pm 12:53 Cloudy 81 27.2 71 21.7 72 72 Calm 29.93 1014 10 16 0.00 0.00
1:16 pm 13:16 Cloudy 81 27 72 22 74 74 NW 5 7 29.88 1012 10 16 0.00 0.00
1:53 pm 13:53 Cloudy 80 26.7 72 22.2 76 76 NNE 7 11 29.94 1014 10 16 0.00 0.00
2:43 pm 14:43 Cloudy 78 25.6 72 22.2 82 82 NNE 13 20 29.91 1013 10 16 0.00 0.03
2:53 pm 14:53 Cloudy 79 26.1 73 22.8 82 82 NNE 13 20 29.95 1014 10 16 0.00 0.03
3:04 pm 15:04 Cloudy 77 25 72 22 83 83 N 15 24 29.94 1014 10 16 0.00 0.00
3:53 pm 15:53 Cloudy 77 25 71 21.7 82 82 NNE 15 24 29.96 1015 10 16 0.00 0.00
4:10 pm 16:10 Cloudy 77 25 70 21 79 79 NE 12 19 29.94 1014 10 16 0.00 0.00
4:40 pm 16:40 Cloudy 77 25 70 21 79 79 NE 12 19 29.94 1014 10 16 0.00 0.00
4:53 pm 16:53 Cloudy 77 25 70 21.1 79 79 NE 12 19 29.98 1015 10 16 0.00 0.00
5:21 pm 17:21 Cloudy 77 25 71 21.7 82 82 NE 13 20 29.94 1014 10 16 0.00 0.00
5:41 pm 17:41 Cloudy 78 25.6 71 21.7 79 79 E 12 19 29.94 1014 10 16 0.00 0.00
5:53 pm 17:53 Mostly Cloudy 78 25.6 71 21.7 79 79 ENE 12 19 29.98 1015 10 16 0.00 0.00
6:00 pm 18:00 Cloudy 78 25.6 71 21.7 79 79 ENE 10 17 29.94 1014 10 16 0.00 0.00
6:53 pm 18:53 Cloudy with Light Rain 76 24.4 72 22.2 88 88 NE 8 13 29.99 1016 7 11 0.00 0.03
7:07 pm 19:07 Cloudy 76 24.4 71 21.7 85 85 ENE 9 15 29.94 1014 10 16 0.00 0.03
7:53 pm 19:53 Cloudy 77 25 71 21.7 82 82 NE 8 13 29.99 1016 10 16 0.00 0.03
8:53 pm 20:53 Partly Cloudy 75 23.9 71 21.7 88 88 NNE 7 11 29.99 1016 10 16 0.00 0.00
9:53 pm 21:53 Clear 73 22.8 70 21.1 90 90 NNE 6 9 30.01 1016 10 16 0.00 0.00
10:53 pm 22:53 Clear 72 22.2 70 21.1 94 94 NNE 6 9 30.02 1017 7 11 0.00 0.00
11:53 pm 23:53 Clear with Mist and Fog 72 22.2 70 21.1 94 94 NNE 7 11 30.02 1017 5 8 0.00 0.00

Powered by AerisWeather